RUK4CF GMTT-EGCC

Flight info

Callsign RUK4CF
Flight time 2h 48m
Altitude 18000
Route LAMAD M143 GALTO/N0435F340 N869 PIMOS/N0439F360 N869 BLN DCT MORAL DCT BEXID DCT VTB DCT SIE DCT XERMA DCT ARLUN DCT BUGIX DCT UNGAS DCT DELOG DCT RUSIB DCT NOZHU/N0439F370 DCT SHIRI DCT TOJAQ DCT EPACE DCT ACCOP/N0361F240 P16 AXCIS
Aircraft B738/M-SDE1E2E3FGIJ1LRWY/SB1

Departure

Time 2026-05-05 18:42
Airport Tangier Ibn Battuta Airport (GMTT)

Arrival

Time 2026-05-05 21:30
Airport Manchester Airport (EGCC)
Time Latitude Longitude Altitude Speed Heading
2026-05-05 18:09 35.72533 -5.91080 59 ft 0 kts 356°
2026-05-05 18:28 35.72527 -5.91079 59 ft 4 kts 357°
2026-05-05 18:29 35.72500 -5.91079 55 ft 4 kts
2026-05-05 18:29 35.72473 -5.91078 54 ft 4 kts 339°
2026-05-05 18:29 35.72461 -5.91064 52 ft 4 kts 290°
2026-05-05 18:29 35.72455 -5.91056 54 ft 2 kts 266°
2026-05-05 18:30 35.72454 -5.91063 53 ft 4 kts 266°
2026-05-05 18:30 35.72453 -5.91086 57 ft 4 kts 266°
2026-05-05 18:30 35.72451 -5.91118 59 ft 2 kts 266°
2026-05-05 18:30 35.72451 -5.91120 59 ft 1 kts 266°
2026-05-05 18:32 35.72451 -5.91128 59 ft 2 kts 266°
2026-05-05 18:32 35.72449 -5.91158 59 ft 5 kts 266°
2026-05-05 18:33 35.72446 -5.91213 59 ft 8 kts 266°
2026-05-05 18:33 35.72441 -5.91292 59 ft 10 kts 265°
2026-05-05 18:33 35.72435 -5.91390 55 ft 13 kts 266°
2026-05-05 18:33 35.72430 -5.91504 59 ft 14 kts 266°
2026-05-05 18:34 35.72441 -5.91621 55 ft 15 kts 304°
2026-05-05 18:34 35.72527 -5.91686 59 ft 16 kts 354°
2026-05-05 18:34 35.72643 -5.91697 59 ft 17 kts 355°
2026-05-05 18:34 35.72762 -5.91709 59 ft 17 kts 355°
2026-05-05 18:35 35.72877 -5.91720 55 ft 16 kts 356°
2026-05-05 18:35 35.72937 -5.91632 56 ft 17 kts 94°
2026-05-05 18:35 35.72923 -5.91478 54 ft 19 kts 96°
2026-05-05 18:35 35.72908 -5.91312 59 ft 17 kts 96°
2026-05-05 18:36 35.72896 -5.91180 57 ft 16 kts 96°
2026-05-05 18:36 35.72881 -5.91031 59 ft 19 kts 97°
2026-05-05 18:36 35.72865 -5.90862 59 ft 21 kts 97°
2026-05-05 18:36 35.72846 -5.90672 57 ft 23 kts 97°
2026-05-05 18:37 35.72832 -5.90503 55 ft 19 kts 95°
2026-05-05 18:37 35.72818 -5.90344 58 ft 17 kts 96°
2026-05-05 18:37 35.72825 -5.90253 58 ft 1 kts 65°
2026-05-05 18:37 35.72826 -5.90250 58 ft 0 kts 64°
2026-05-05 18:38 35.72828 -5.90244 56 ft 1 kts 64°
2026-05-05 18:38 35.72834 -5.90234 52 ft 2 kts 56°
2026-05-05 18:38 35.72841 -5.90224 51 ft 0 kts 47°
2026-05-05 18:40 35.72849 -5.90215 52 ft 4 kts 38°
2026-05-05 18:40 35.72890 -5.90195 52 ft 9 kts
2026-05-05 18:41 35.72964 -5.90221 53 ft 13 kts 320°
2026-05-05 18:41 35.72997 -5.90332 54 ft 16 kts 276°
2026-05-05 18:41 35.73031 -5.90699 55 ft 79 kts 277°
2026-05-05 18:41 35.73122 -5.91659 58 ft 144 kts 277°
2026-05-05 18:42 35.73249 -5.93031 466 ft 165 kts 277°
2026-05-05 18:42 35.73359 -5.94389 1477 ft 159 kts 278°
2026-05-05 18:42 35.73519 -5.95831 1974 ft 185 kts 279°
2026-05-05 18:42 35.73712 -5.97513 2279 ft 210 kts 279°
2026-05-05 18:43 35.73915 -5.99342 2802 ft 217 kts 279°
2026-05-05 18:43 35.74345 -6.01123 3356 ft 221 kts 307°
2026-05-05 18:43 35.75541 -6.02264 4029 ft 221 kts 338°
2026-05-05 18:43 35.77064 -6.02556 4621 ft 226 kts
2026-05-05 18:44 35.78548 -6.01895 5197 ft 233 kts 34°
2026-05-05 18:44 35.79579 -6.00358 5817 ft 239 kts 65°
2026-05-05 18:44 35.79804 -5.98318 6449 ft 248 kts 98°
2026-05-05 18:44 35.79241 -5.96301 7181 ft 252 kts 116°
2026-05-05 18:45 35.78394 -5.94395 7904 ft 256 kts 120°
2026-05-05 18:45 35.77492 -5.92477 8593 ft 262 kts 121°
2026-05-05 18:45 35.76585 -5.90522 9372 ft 264 kts 121°
2026-05-05 18:45 35.75687 -5.88536 10135 ft 267 kts 121°
2026-05-05 18:46 35.74787 -5.86520 10806 ft 270 kts 121°
2026-05-05 18:46 35.73881 -5.84480 11493 ft 273 kts 121°
2026-05-05 18:46 35.72971 -5.82409 12186 ft 277 kts 117°
2026-05-05 18:46 35.72539 -5.80087 12810 ft 285 kts 88°
2026-05-05 18:47 35.72981 -5.77641 13090 ft 306 kts 67°
2026-05-05 18:47 35.73848 -5.75148 13300 ft 328 kts 66°
2026-05-05 18:47 35.74784 -5.72485 13484 ft 351 kts 66°
2026-05-05 18:47 35.75766 -5.69639 13713 ft 371 kts 67°
2026-05-05 18:48 35.76507 -5.66561 14199 ft 379 kts 79°
2026-05-05 18:48 35.76887 -5.63336 14874 ft 382 kts 83°
2026-05-05 18:48 35.77195 -5.60088 15557 ft 384 kts 83°
2026-05-05 18:48 35.77543 -5.56811 16236 ft 387 kts 82°
2026-05-05 18:49 35.77949 -5.53526 16880 ft 390 kts 81°
2026-05-05 18:49 35.78388 -5.50215 17517 ft 394 kts 80°
2026-05-05 18:49 35.78842 -5.46875 18155 ft 397 kts 79°
2026-05-05 18:49 35.79309 -5.43507 18715 ft 401 kts 79°
2026-05-05 18:50 35.79782 -5.40110 19240 ft 405 kts 80°
2026-05-05 18:50 35.80257 -5.36680 19722 ft 409 kts 80°
2026-05-05 18:50 35.80736 -5.33203 20221 ft 414 kts 80°
2026-05-05 18:50 35.81212 -5.29735 20705 ft 418 kts 80°
2026-05-05 18:51 35.81704 -5.26138 21207 ft 422 kts 81°
2026-05-05 18:51 35.82192 -5.22559 21669 ft 426 kts 81°
2026-05-05 18:51 35.82707 -5.18940 22132 ft 431 kts 77°
2026-05-05 18:51 35.83794 -5.15499 22563 ft 434 kts 58°
2026-05-05 18:52 35.85653 -5.12576 23029 ft 435 kts 41°
2026-05-05 18:52 35.88090 -5.10379 23491 ft 435 kts 30°
2026-05-05 18:52 35.90669 -5.08404 23870 ft 439 kts 29°
2026-05-05 18:52 35.93239 -5.06454 24257 ft 442 kts 29°
2026-05-05 18:53 35.95858 -5.04446 24704 ft 443 kts 29°
2026-05-05 18:53 35.98467 -5.02416 25120 ft 445 kts 29°
2026-05-05 18:53 36.01086 -5.00355 25509 ft 447 kts 30°
2026-05-05 18:53 36.03713 -4.98275 25885 ft 450 kts 30°
2026-05-05 18:54 36.06352 -4.96179 26245 ft 453 kts 30°
2026-05-05 18:54 36.09005 -4.94069 26606 ft 455 kts 30°
2026-05-05 18:54 36.11682 -4.91942 26958 ft 458 kts 30°
2026-05-05 18:54 36.14365 -4.89809 27303 ft 460 kts 29°
2026-05-05 18:55 36.17071 -4.87668 27626 ft 463 kts 29°
2026-05-05 18:55 36.19802 -4.85532 27955 ft 466 kts 29°
2026-05-05 18:55 36.22554 -4.83390 28285 ft 468 kts 28°
2026-05-05 18:55 36.25321 -4.81236 28605 ft 471 kts 28°
2026-05-05 18:56 36.28102 -4.79068 28931 ft 473 kts 28°
2026-05-05 18:56 36.30893 -4.76887 29212 ft 476 kts 28°
2026-05-05 18:56 36.33704 -4.74686 29512 ft 479 kts 28°
2026-05-05 18:56 36.36524 -4.72474 29804 ft 481 kts 28°
2026-05-05 18:57 36.39365 -4.70244 30082 ft 484 kts 28°
2026-05-05 18:57 36.42213 -4.68005 30328 ft 485 kts 28°
2026-05-05 18:57 36.45063 -4.65762 30655 ft 484 kts 28°
2026-05-05 18:57 36.47902 -4.63525 31040 ft 483 kts 28°
2026-05-05 18:58 36.50741 -4.61287 31395 ft 482 kts 28°
2026-05-05 18:58 36.53571 -4.59054 31685 ft 482 kts 28°
2026-05-05 18:58 36.56406 -4.56817 31972 ft 483 kts 28°
2026-05-05 18:58 36.59245 -4.54575 32283 ft 483 kts 28°
2026-05-05 18:59 36.62077 -4.52335 32608 ft 482 kts 28°
2026-05-05 18:59 36.64908 -4.50095 32921 ft 482 kts 29°
2026-05-05 18:59 36.67739 -4.47852 33193 ft 483 kts 29°
2026-05-05 18:59 36.70573 -4.45605 33445 ft 483 kts 29°
2026-05-05 19:00 36.73412 -4.43352 33709 ft 484 kts 29°
2026-05-05 19:00 36.76251 -4.41097 33998 ft 483 kts 29°
2026-05-05 19:00 36.79087 -4.38843 34261 ft 483 kts 29°
2026-05-05 19:00 36.81946 -4.36649 34521 ft 481 kts 24°
2026-05-05 19:01 36.84942 -4.34838 34766 ft 477 kts 19°
2026-05-05 19:01 36.87980 -4.33185 34986 ft 476 kts 18°
2026-05-05 19:01 36.91027 -4.31581 35272 ft 474 kts 18°
2026-05-05 19:01 36.94058 -4.29989 35567 ft 472 kts 18°
2026-05-05 19:02 36.97082 -4.28384 35810 ft 472 kts 18°
2026-05-05 19:02 37.00100 -4.26761 35966 ft 473 kts 18°
2026-05-05 19:02 37.06168 -4.23455 35969 ft 476 kts 18°
2026-05-05 19:03 37.12221 -4.20121 35951 ft 473 kts 18°
2026-05-05 19:03 37.18212 -4.16811 35960 ft 469 kts 18°
2026-05-05 19:04 37.24172 -4.13521 35971 ft 467 kts 18°
2026-05-05 19:04 37.30105 -4.10241 35963 ft 465 kts 18°
2026-05-05 19:05 37.36024 -4.06964 35976 ft 465 kts 18°
2026-05-05 19:05 37.41957 -4.03675 35982 ft 467 kts 18°
2026-05-05 19:06 37.47913 -4.00366 35977 ft 469 kts 18°
2026-05-05 19:06 37.53899 -3.97034 35958 ft 471 kts 18°
2026-05-05 19:07 37.58879 -3.94256 35966 ft 472 kts 18°
2026-05-05 19:07 37.65908 -3.90329 35967 ft 473 kts 18°
2026-05-05 19:08 37.71938 -3.86954 35959 ft 474 kts 18°
2026-05-05 19:08 37.77973 -3.83570 35953 ft 475 kts 18°
2026-05-05 19:09 37.84002 -3.80182 35947 ft 474 kts 18°
2026-05-05 19:09 37.90017 -3.76796 35945 ft 472 kts 18°
2026-05-05 19:10 37.96012 -3.73417 35946 ft 471 kts 18°
2026-05-05 19:10 38.01995 -3.70038 35941 ft 470 kts 18°
2026-05-05 19:11 38.07964 -3.66660 35942 ft 469 kts 18°
2026-05-05 19:11 38.12922 -3.63872 35945 ft 467 kts 15°
2026-05-05 19:12 38.19092 -3.61970 35950 ft 449 kts 357°
2026-05-05 19:12 38.25309 -3.61412 35956 ft 448 kts 356°
2026-05-05 19:13 38.32543 -3.60803 35965 ft 449 kts 356°
2026-05-05 19:13 38.37781 -3.60318 35963 ft 451 kts 356°
2026-05-05 19:14 38.44045 -3.59711 35965 ft 452 kts 356°
2026-05-05 19:14 38.50326 -3.59095 35958 ft 453 kts 356°
2026-05-05 19:15 38.56611 -3.58477 35967 ft 453 kts 356°
2026-05-05 19:15 38.62902 -3.57860 35970 ft 454 kts 356°
2026-05-05 19:16 38.69206 -3.57241 35958 ft 454 kts 356°
2026-05-05 19:16 38.75500 -3.56621 35965 ft 454 kts 356°
2026-05-05 19:17 38.81752 -3.56005 35954 ft 453 kts 356°
2026-05-05 19:17 38.88076 -3.55380 35954 ft 452 kts 356°
2026-05-05 19:18 38.94348 -3.54760 35951 ft 451 kts 356°
2026-05-05 19:18 39.00561 -3.54144 35951 ft 450 kts 356°
2026-05-05 19:19 39.06797 -3.53528 35952 ft 449 kts 356°
2026-05-05 19:19 39.13015 -3.52914 35949 ft 448 kts 356°
2026-05-05 19:20 39.19218 -3.52302 35948 ft 447 kts 356°
2026-05-05 19:20 39.25411 -3.51688 35952 ft 446 kts 356°
2026-05-05 19:21 39.31601 -3.51074 35953 ft 446 kts 356°
2026-05-05 19:21 39.37784 -3.50459 35958 ft 446 kts 356°
2026-05-05 19:22 39.43973 -3.49842 35956 ft 446 kts 356°
2026-05-05 19:22 39.50169 -3.49224 35953 ft 447 kts 356°
2026-05-05 19:23 39.56376 -3.48603 35963 ft 448 kts 356°
2026-05-05 19:23 39.62594 -3.47977 35950 ft 449 kts 356°
2026-05-05 19:24 39.68824 -3.47344 35953 ft 450 kts 356°
2026-05-05 19:24 39.75072 -3.46709 35959 ft 450 kts 356°
2026-05-05 19:25 39.81280 -3.46538 35960 ft 442 kts 348°
2026-05-05 19:25 39.87400 -3.47196 35958 ft 441 kts 347°
2026-05-05 19:26 39.93508 -3.47910 35955 ft 441 kts 347°
2026-05-05 19:26 39.99626 -3.48572 35957 ft 441 kts 348°
2026-05-05 19:27 40.05740 -3.49199 35964 ft 440 kts 348°
2026-05-05 19:27 40.11839 -3.49818 35969 ft 440 kts 348°
2026-05-05 19:28 40.17939 -3.50437 35961 ft 439 kts 348°
2026-05-05 19:28 40.24023 -3.51057 35970 ft 438 kts 348°
2026-05-05 19:29 40.30098 -3.51678 35968 ft 438 kts 348°
2026-05-05 19:29 40.36164 -3.52300 35969 ft 437 kts 348°
2026-05-05 19:30 40.42225 -3.52921 35968 ft 436 kts 348°
2026-05-05 19:30 40.48276 -3.53544 35976 ft 436 kts 348°
2026-05-05 19:31 40.54325 -3.54167 35977 ft 436 kts 348°
2026-05-05 19:31 40.60376 -3.54791 35979 ft 436 kts 348°
2026-05-05 19:32 40.66399 -3.55414 35973 ft 437 kts 348°
2026-05-05 19:32 40.72457 -3.56041 35974 ft 437 kts 348°
2026-05-05 19:33 40.78519 -3.56670 35989 ft 437 kts 348°
2026-05-05 19:33 40.84578 -3.57300 35996 ft 437 kts 348°
2026-05-05 19:34 40.90687 -3.57935 35997 ft 437 kts 348°
2026-05-05 19:35 40.99782 -3.58884 36014 ft 437 kts 348°
2026-05-05 19:35 41.05844 -3.59518 36015 ft 437 kts 348°
2026-05-05 19:36 41.11862 -3.60149 36030 ft 436 kts 348°
2026-05-05 19:36 41.17927 -3.60669 36024 ft 439 kts 351°
2026-05-05 19:37 41.24039 -3.60798 36026 ft 439 kts 352°
2026-05-05 19:37 41.30151 -3.60893 36030 ft 439 kts 352°
2026-05-05 19:38 41.36248 -3.61033 36036 ft 438 kts 352°
2026-05-05 19:38 41.42339 -3.61191 36033 ft 437 kts 352°
2026-05-05 19:39 41.48416 -3.61349 36030 ft 437 kts 352°
2026-05-05 19:39 41.54498 -3.61445 36035 ft 437 kts 353°
2026-05-05 19:40 41.60587 -3.61426 36033 ft 438 kts 354°
2026-05-05 19:40 41.66683 -3.61405 36032 ft 438 kts 354°
2026-05-05 19:41 41.72783 -3.61399 36036 ft 439 kts 354°
2026-05-05 19:41 41.78891 -3.61400 36036 ft 439 kts 354°
2026-05-05 19:42 41.85009 -3.61401 36036 ft 440 kts 354°
2026-05-05 19:42 41.91138 -3.61401 36035 ft 441 kts 354°
2026-05-05 19:43 41.97279 -3.61400 36038 ft 441 kts 354°
2026-05-05 19:43 42.03425 -3.61413 36038 ft 442 kts 353°
2026-05-05 19:44 42.09560 -3.61763 36034 ft 441 kts 351°
2026-05-05 19:44 42.15686 -3.62219 36031 ft 442 kts 352°
2026-05-05 19:45 42.21830 -3.62627 36027 ft 442 kts 352°
2026-05-05 19:45 42.27944 -3.63008 36020 ft 443 kts 352°
2026-05-05 19:46 42.34100 -3.63393 36024 ft 443 kts 352°
2026-05-05 19:46 42.40197 -3.64231 36029 ft 439 kts 347°
2026-05-05 19:47 42.46231 -3.65519 36027 ft 439 kts 346°
2026-05-05 19:47 42.52264 -3.66789 36025 ft 439 kts 347°
2026-05-05 19:48 42.58299 -3.68010 36035 ft 439 kts 347°
2026-05-05 19:48 42.64337 -3.69221 36041 ft 438 kts 347°
2026-05-05 19:49 42.70376 -3.70415 36045 ft 439 kts 348°
2026-05-05 19:49 42.76442 -3.71454 36048 ft 439 kts 349°
2026-05-05 19:50 42.82510 -3.72459 36049 ft 440 kts 349°
2026-05-05 19:50 42.88580 -3.73481 36045 ft 440 kts 349°
2026-05-05 19:51 42.94650 -3.74517 36053 ft 439 kts 349°
2026-05-05 19:51 43.00712 -3.75558 36047 ft 439 kts 349°
2026-05-05 19:52 43.06775 -3.76603 36051 ft 439 kts 349°
2026-05-05 19:52 43.12842 -3.77650 36051 ft 439 kts 349°
2026-05-05 19:53 43.18909 -3.78698 36033 ft 439 kts 349°
2026-05-05 19:53 43.24968 -3.79748 36035 ft 439 kts 349°
2026-05-05 19:54 43.31043 -3.80802 36019 ft 440 kts 349°
2026-05-05 19:54 43.37117 -3.81858 36016 ft 440 kts 349°
2026-05-05 19:55 43.43185 -3.82915 36019 ft 440 kts 349°
2026-05-05 19:55 43.49216 -3.83968 36026 ft 440 kts 349°
2026-05-05 19:56 43.55282 -3.85029 36019 ft 439 kts 350°
2026-05-05 19:56 43.61346 -3.86091 36022 ft 439 kts 350°
2026-05-05 19:57 43.67403 -3.87155 36023 ft 439 kts 350°
2026-05-05 19:57 43.73460 -3.88221 36027 ft 439 kts 350°
2026-05-05 19:58 43.79514 -3.89289 36020 ft 439 kts 350°
2026-05-05 19:58 43.84590 -3.90186 36013 ft 438 kts 350°
2026-05-05 19:59 43.90645 -3.91258 36014 ft 439 kts 350°
2026-05-05 19:59 43.96694 -3.92331 36015 ft 439 kts 350°
2026-05-05 20:00 44.02754 -3.93408 36013 ft 439 kts 350°
2026-05-05 20:00 44.08781 -3.94481 36009 ft 440 kts 350°
2026-05-05 20:01 44.14848 -3.95564 36006 ft 440 kts 351°
2026-05-05 20:01 44.20927 -3.96652 36007 ft 441 kts 351°
2026-05-05 20:02 44.27012 -3.97742 36004 ft 441 kts 351°
2026-05-05 20:02 44.33107 -3.98793 35997 ft 442 kts 354°
2026-05-05 20:03 44.39270 -3.98782 35999 ft 444 kts 360°
2026-05-05 20:03 44.45444 -3.98460 36001 ft 444 kts
2026-05-05 20:04 44.51613 -3.98162 35997 ft 443 kts 360°
2026-05-05 20:04 44.57776 -3.97915 35987 ft 443 kts 360°
2026-05-05 20:05 44.63928 -3.97693 35994 ft 442 kts 360°
2026-05-05 20:05 44.70077 -3.97475 35997 ft 441 kts 360°
2026-05-05 20:06 44.76167 -3.97258 35991 ft 440 kts 360°
2026-05-05 20:06 44.82287 -3.97038 35987 ft 439 kts 360°
2026-05-05 20:07 44.88393 -3.96818 35984 ft 438 kts
2026-05-05 20:07 44.94483 -3.96599 35986 ft 437 kts
2026-05-05 20:08 45.00555 -3.96379 35981 ft 436 kts
2026-05-05 20:08 45.06619 -3.96159 35980 ft 436 kts
2026-05-05 20:09 45.12683 -3.95939 35981 ft 435 kts
2026-05-05 20:09 45.18732 -3.95719 35980 ft 435 kts
2026-05-05 20:10 45.24778 -3.95499 35981 ft 435 kts
2026-05-05 20:10 45.30828 -3.95277 35977 ft 435 kts
2026-05-05 20:11 45.36886 -3.95056 35978 ft 435 kts
2026-05-05 20:11 45.42948 -3.94833 35976 ft 436 kts
2026-05-05 20:12 45.49014 -3.94610 35972 ft 436 kts
2026-05-05 20:12 45.55084 -3.94386 35969 ft 437 kts
2026-05-05 20:13 45.61166 -3.94162 35967 ft 437 kts
2026-05-05 20:13 45.67257 -3.93936 35964 ft 438 kts
2026-05-05 20:14 45.73350 -3.93710 35967 ft 438 kts
2026-05-05 20:14 45.79451 -3.93483 35964 ft 439 kts
2026-05-05 20:15 45.85554 -3.93256 35961 ft 439 kts
2026-05-05 20:15 45.91654 -3.93028 35959 ft 439 kts
2026-05-05 20:16 45.97753 -3.92799 35959 ft 438 kts
2026-05-05 20:16 46.03807 -3.92572 35962 ft 438 kts
2026-05-05 20:17 46.09894 -3.92343 35962 ft 437 kts
2026-05-05 20:17 46.15973 -3.92114 35961 ft 437 kts
2026-05-05 20:18 46.22040 -3.91885 35963 ft 436 kts
2026-05-05 20:18 46.28104 -3.91656 35959 ft 436 kts
2026-05-05 20:19 46.34162 -3.91426 35963 ft 435 kts
2026-05-05 20:19 46.40209 -3.91196 35960 ft 434 kts
2026-05-05 20:20 46.46245 -3.90966 35960 ft 433 kts
2026-05-05 20:20 46.52270 -3.90736 35959 ft 433 kts
2026-05-05 20:21 46.58280 -3.90506 35963 ft 432 kts
2026-05-05 20:21 46.64278 -3.90276 35965 ft 431 kts
2026-05-05 20:22 46.70264 -3.90045 35967 ft 430 kts
2026-05-05 20:22 46.76241 -3.89815 35965 ft 429 kts
2026-05-05 20:23 46.82210 -3.89585 35967 ft 429 kts
2026-05-05 20:23 46.88169 -3.89354 35964 ft 428 kts
2026-05-05 20:24 46.94120 -3.89123 35968 ft 428 kts
2026-05-05 20:24 47.00067 -3.88892 35967 ft 428 kts
2026-05-05 20:25 47.06017 -3.88660 35968 ft 427 kts
2026-05-05 20:25 47.11964 -3.88428 35970 ft 427 kts
2026-05-05 20:26 47.17911 -3.88196 35971 ft 428 kts
2026-05-05 20:26 47.23824 -3.87963 35971 ft 428 kts
2026-05-05 20:27 47.29826 -3.87727 35970 ft 429 kts
2026-05-05 20:27 47.35794 -3.87492 35971 ft 429 kts
2026-05-05 20:28 47.41729 -3.87257 35972 ft 430 kts
2026-05-05 20:28 47.47714 -3.87020 35973 ft 430 kts
2026-05-05 20:29 47.53701 -3.86783 35977 ft 431 kts
2026-05-05 20:29 47.59694 -3.86545 35975 ft 431 kts
2026-05-05 20:30 47.65691 -3.86306 35974 ft 431 kts
2026-05-05 20:30 47.71685 -3.86067 35975 ft 431 kts
2026-05-05 20:31 47.77682 -3.85826 35975 ft 431 kts
2026-05-05 20:31 47.83682 -3.85585 35985 ft 431 kts
2026-05-05 20:32 47.89676 -3.85344 35987 ft 431 kts
2026-05-05 20:32 47.95666 -3.85102 35990 ft 431 kts
2026-05-05 20:33 48.01659 -3.84860 35991 ft 431 kts
2026-05-05 20:33 48.07643 -3.84618 35990 ft 430 kts
2026-05-05 20:34 48.13633 -3.84375 35989 ft 430 kts
2026-05-05 20:34 48.19619 -3.84131 35990 ft 430 kts
2026-05-05 20:35 48.25610 -3.83887 35994 ft 430 kts
2026-05-05 20:35 48.31600 -3.83642 35992 ft 430 kts
2026-05-05 20:36 48.37583 -3.83397 35995 ft 430 kts
2026-05-05 20:36 48.43573 -3.83151 35992 ft 430 kts
2026-05-05 20:37 48.49526 -3.82906 35995 ft 431 kts
2026-05-05 20:37 48.55514 -3.82658 35996 ft 431 kts
2026-05-05 20:38 48.61507 -3.82411 35994 ft 431 kts
2026-05-05 20:38 48.67498 -3.82162 35993 ft 431 kts
2026-05-05 20:39 48.73488 -3.81913 35995 ft 431 kts
2026-05-05 20:39 48.79483 -3.81663 35995 ft 431 kts
2026-05-05 20:40 48.85480 -3.81413 35987 ft 431 kts
2026-05-05 20:40 48.91474 -3.81162 35988 ft 431 kts
2026-05-05 20:41 48.97476 -3.80910 35982 ft 432 kts
2026-05-05 20:41 49.03483 -3.80583 35987 ft 432 kts
2026-05-05 20:42 49.09493 -3.80202 35980 ft 433 kts
2026-05-05 20:42 49.15513 -3.79824 35981 ft 433 kts
2026-05-05 20:43 49.21543 -3.79453 35983 ft 434 kts
2026-05-05 20:43 49.27580 -3.79085 35978 ft 434 kts
2026-05-05 20:44 49.33621 -3.78716 35981 ft 435 kts
2026-05-05 20:44 49.38650 -3.78407 35979 ft 435 kts
2026-05-05 20:45 49.47740 -3.77848 35979 ft 436 kts
2026-05-05 20:45 49.53812 -3.77473 35979 ft 437 kts
2026-05-05 20:46 49.59891 -3.77097 35979 ft 437 kts
2026-05-05 20:46 49.65968 -3.76720 35979 ft 438 kts
2026-05-05 20:47 49.72059 -3.76290 35978 ft 438 kts
2026-05-05 20:47 49.78139 -3.75564 35979 ft 439 kts
2026-05-05 20:48 49.84225 -3.74784 35979 ft 439 kts
2026-05-05 20:48 49.90318 -3.74035 35981 ft 440 kts
2026-05-05 20:49 49.96379 -3.73309 35978 ft 440 kts
2026-05-05 20:49 50.02486 -3.72581 35978 ft 440 kts
2026-05-05 20:50 50.08592 -3.71851 35979 ft 440 kts
2026-05-05 20:50 50.14700 -3.71117 35984 ft 440 kts
2026-05-05 20:51 50.20805 -3.70382 35979 ft 440 kts
2026-05-05 20:51 50.26905 -3.69646 35983 ft 439 kts
2026-05-05 20:52 50.33001 -3.68908 35984 ft 439 kts
2026-05-05 20:52 50.39088 -3.68169 35981 ft 439 kts
2026-05-05 20:53 50.45162 -3.67270 35989 ft 438 kts
2026-05-05 20:53 50.51206 -3.66061 35986 ft 438 kts
2026-05-05 20:54 50.57246 -3.64891 35993 ft 437 kts
2026-05-05 20:54 50.63272 -3.63743 35994 ft 436 kts
2026-05-05 20:55 50.69297 -3.62593 35994 ft 436 kts
2026-05-05 20:55 50.75316 -3.61439 35994 ft 435 kts
2026-05-05 20:56 50.81327 -3.60282 35991 ft 435 kts
2026-05-05 20:56 50.87336 -3.59122 35993 ft 435 kts
2026-05-05 20:57 50.93337 -3.57961 35994 ft 434 kts
2026-05-05 20:57 50.99339 -3.56797 35994 ft 434 kts
2026-05-05 20:58 51.05333 -3.55631 35990 ft 434 kts
2026-05-05 20:58 51.11321 -3.54464 35998 ft 433 kts
2026-05-05 20:59 51.17301 -3.53294 36007 ft 433 kts
2026-05-05 20:59 51.23282 -3.52123 36015 ft 433 kts
2026-05-05 21:00 51.29261 -3.50950 36018 ft 432 kts
2026-05-05 21:00 51.35231 -3.49780 36017 ft 432 kts
2026-05-05 21:01 51.41194 -3.48607 36024 ft 432 kts
2026-05-05 21:01 51.47154 -3.47431 36020 ft 431 kts
2026-05-05 21:02 51.53061 -3.46262 36007 ft 424 kts
2026-05-05 21:02 51.58880 -3.45107 36011 ft 420 kts
2026-05-05 21:03 51.64671 -3.43956 36007 ft 415 kts
2026-05-05 21:03 51.67488 -3.43394 35986 ft 401 kts
2026-05-05 21:03 51.70207 -3.42850 35989 ft 387 kts
2026-05-05 21:04 51.75437 -3.41805 36017 ft 378 kts
2026-05-05 21:04 51.80748 -3.40745 36036 ft 391 kts
2026-05-05 21:05 51.86198 -3.39651 36035 ft 397 kts
2026-05-05 21:05 51.91694 -3.38544 36018 ft 395 kts
2026-05-05 21:06 51.97104 -3.37853 36014 ft 387 kts
2026-05-05 21:06 52.02499 -3.37529 36029 ft 389 kts
2026-05-05 21:07 52.07925 -3.37154 36035 ft 391 kts
2026-05-05 21:07 52.13378 -3.36735 36027 ft 393 kts
2026-05-05 21:08 52.18854 -3.36337 36031 ft 395 kts
2026-05-05 21:08 52.24315 -3.35957 36033 ft 396 kts
2026-05-05 21:09 52.29860 -3.35568 36027 ft 397 kts
2026-05-05 21:09 52.35336 -3.35180 36033 ft 396 kts
2026-05-05 21:10 52.40840 -3.34789 36026 ft 395 kts
2026-05-05 21:10 52.46329 -3.34398 36040 ft 394 kts
2026-05-05 21:11 52.51807 -3.33977 36032 ft 394 kts
2026-05-05 21:11 52.57270 -3.33547 36037 ft 392 kts
2026-05-05 21:12 52.59969 -3.33336 35827 ft 385 kts
2026-05-05 21:12 52.62642 -3.32992 35058 ft 389 kts
2026-05-05 21:12 52.65323 -3.31927 33737 ft 408 kts 17°
2026-05-05 21:12 52.68049 -3.30245 32129 ft 428 kts 19°
2026-05-05 21:13 52.70855 -3.28461 31012 ft 434 kts 19°
2026-05-05 21:13 52.73672 -3.26715 30286 ft 430 kts 18°
2026-05-05 21:13 52.76454 -3.25043 29603 ft 422 kts 18°
2026-05-05 21:13 52.79195 -3.23418 28893 ft 416 kts 17°
2026-05-05 21:14 52.81902 -3.21813 28139 ft 411 kts 18°
2026-05-05 21:14 52.84577 -3.20218 27406 ft 407 kts 18°
2026-05-05 21:14 52.87226 -3.18607 26687 ft 404 kts 21°
2026-05-05 21:14 52.89662 -3.16328 25968 ft 404 kts 36°
2026-05-05 21:15 52.91704 -3.13140 25114 ft 406 kts 46°
2026-05-05 21:15 52.93575 -3.09597 24203 ft 410 kts 47°
2026-05-05 21:15 52.95419 -3.06010 23449 ft 407 kts 48°
2026-05-05 21:15 52.97146 -3.02332 22683 ft 403 kts 59°
2026-05-05 21:16 52.98029 -2.97966 21945 ft 400 kts 84°
2026-05-05 21:16 52.97788 -2.93433 21268 ft 393 kts 109°
2026-05-05 21:16 52.96501 -2.89528 20571 ft 385 kts 133°
2026-05-05 21:16 52.94404 -2.86891 19841 ft 377 kts 158°
2026-05-05 21:17 52.91893 -2.85975 19143 ft 367 kts 184°
2026-05-05 21:17 52.89454 -2.86904 18454 ft 359 kts 209°
2026-05-05 21:17 52.87554 -2.89451 17701 ft 351 kts 235°
2026-05-05 21:17 52.86562 -2.93060 16964 ft 345 kts 260°
2026-05-05 21:18 52.86343 -2.96987 16288 ft 341 kts 269°
2026-05-05 21:18 52.86371 -3.00889 15606 ft 338 kts 272°
2026-05-05 21:18 52.86467 -3.04770 14943 ft 336 kts 272°
2026-05-05 21:18 52.86441 -3.08622 14329 ft 333 kts 273°
2026-05-05 21:19 52.87024 -3.12175 14076 ft 314 kts 301°
2026-05-05 21:19 52.88515 -3.14650 13816 ft 301 kts 331°
2026-05-05 21:19 52.90487 -3.15464 13539 ft 292 kts
2026-05-05 21:19 52.92386 -3.14441 13269 ft 290 kts 34°
2026-05-05 21:20 52.93664 -3.11899 13009 ft 293 kts 65°
2026-05-05 21:20 52.94298 -3.08660 12791 ft 299 kts 74°
2026-05-05 21:20 52.94809 -3.05304 12534 ft 301 kts 74°
2026-05-05 21:20 52.95576 -3.02176 12232 ft 295 kts 51°
2026-05-05 21:21 52.96930 -2.99692 12014 ft 289 kts 42°
2026-05-05 21:21 52.98390 -2.97417 11756 ft 287 kts 41°
2026-05-05 21:21 52.99837 -2.95142 11503 ft 286 kts 42°
2026-05-05 21:21 53.01251 -2.92824 11249 ft 286 kts 43°
2026-05-05 21:22 53.02639 -2.90457 10943 ft 287 kts 44°
2026-05-05 21:22 53.04017 -2.88037 10515 ft 290 kts 45°
2026-05-05 21:22 53.05386 -2.85583 10081 ft 288 kts 45°
2026-05-05 21:22 53.06709 -2.83176 9839 ft 276 kts 45°
2026-05-05 21:23 53.08015 -2.80781 9216 ft 278 kts 46°
2026-05-05 21:23 53.09308 -2.78400 8729 ft 276 kts 46°
2026-05-05 21:23 53.10586 -2.76035 8274 ft 273 kts 46°
2026-05-05 21:23 53.11845 -2.73701 7847 ft 269 kts 47°
2026-05-05 21:24 53.13088 -2.71393 7417 ft 266 kts 47°
2026-05-05 21:24 53.14315 -2.69110 6983 ft 263 kts 48°
2026-05-05 21:24 53.15524 -2.66854 6588 ft 260 kts 48°
2026-05-05 21:24 53.16722 -2.64618 6162 ft 257 kts 49°
2026-05-05 21:25 53.17908 -2.62401 5745 ft 254 kts 48°
2026-05-05 21:25 53.19077 -2.60217 5336 ft 252 kts 48°
2026-05-05 21:25 53.20237 -2.58045 4918 ft 250 kts 48°
2026-05-05 21:25 53.21387 -2.55892 4498 ft 247 kts 49°
2026-05-05 21:26 53.22525 -2.53766 4108 ft 244 kts 47°
2026-05-05 21:26 53.23667 -2.51733 3794 ft 237 kts 49°
2026-05-05 21:26 53.24723 -2.49656 3475 ft 232 kts 52°
2026-05-05 21:26 53.25718 -2.47586 3178 ft 225 kts 52°
2026-05-05 21:27 53.26669 -2.45597 2878 ft 214 kts 52°
2026-05-05 21:27 53.27571 -2.43716 2584 ft 202 kts 52°
2026-05-05 21:27 53.28424 -2.41942 2303 ft 190 kts 53°
2026-05-05 21:27 53.29221 -2.40283 2045 ft 175 kts 53°
2026-05-05 21:28 53.29948 -2.38771 1802 ft 158 kts 53°
2026-05-05 21:28 53.30602 -2.37412 1608 ft 146 kts 53°
2026-05-05 21:28 53.31219 -2.36126 1443 ft 138 kts 53°
2026-05-05 21:28 53.31820 -2.34875 1219 ft 137 kts 53°
2026-05-05 21:29 53.32415 -2.33638 1016 ft 136 kts 52°
2026-05-05 21:29 53.33008 -2.32407 811 ft 134 kts 52°
2026-05-05 21:29 53.33589 -2.31200 638 ft 138 kts 52°
2026-05-05 21:29 53.33998 -2.30349 514 ft 139 kts 52°
2026-05-05 21:30 53.34608 -2.29085 301 ft 139 kts 52°
2026-05-05 21:30 53.35184 -2.27895 229 ft 113 kts 51°
2026-05-05 21:30 53.35609 -2.27010 240 ft 44 kts 51°
2026-05-05 21:30 53.35732 -2.26756 244 ft 38 kts 51°
2026-05-05 21:31 53.35885 -2.26699 237 ft 15 kts 345°
2026-05-05 21:31 53.35916 -2.26748 233 ft 8 kts 291°
2026-05-05 21:31 53.35922 -2.26833 232 ft 7 kts 256°
2026-05-05 21:31 53.35922 -2.26912 232 ft 7 kts 278°
2026-05-05 21:32 53.35927 -2.26981 232 ft 2 kts 275°
2026-05-05 21:32 53.35927 -2.26987 232 ft 0 kts 275°